Location: Woodhurst
(52.3667°N, 0.0667°W)
Time: 14:00:56
(UTC+00:00)

Cosmos 2298 Rocket - Pass Details

Date: 19 May 2025
Orbit: 773 x 782 km, 74.0° (Epoch: 17 June)

Event Time Altitude Azimuth Distance (km) Brightness Sun altitude
Rises 21:15:41 0° 335° (NNW) 3,282 9.2 -9.6°
Reaches altitude 10° 21:18:06 10° 338° (NNW) 2,350 7.9 -9.9°
Maximum altitude 21:23:26 69° 62° (ENE) 840 4.2 -10.3°
Enters shadow 21:27:58 14° 144° (SE) 2,044 5.5 -10.8°
